SCP
0 0 0 0 0 -0 0 0 0 0 -0 0 -0 0 -0 -0 -0 0 0 0 -0 -0 -0 -0 -0 -0 -0 -0 -1 -1 -1 -1 -1 -1 -1 -1 -0 -0 -0 -0 -0 -0 0 0 0 0 -0 -0 -0
0 0 0 -0 0 -0 -0 -0 0 -0 0 0 -0 0 -0 0 -0 -0 -0 -0 -0 -0 -0 -0 -0 -0 -0 -1 -1 -1 -1 -1 -1 -1 -1 -1 -0 -0 -1 -1 -0 -0 -0 -0 0 0 -0 -0 -0
0 0 -0 0 0 0 0 0 0 0 -0 0 0 -0 0 -0 -0 -0 0 -0 -0 -0 -0 -0 -0 -0 -0 -1 -1 -0 -0 -0 -1 -1 -0 -1 -0 -0 -1 -1 -0 -0 -0 -0 -0 0 -0 -0 -0
0 0 -0 0 -0 -0 -0 -0 0 0 0 -0 -0 -0 -0 -0 0 0 -0 -0 -0 -0 -0 -0 -0 -0 -0 -0 -0 -0 -1 -1 -0 -0 -0 -1 -0 -0 -0 -0 -0 -0 -0 -0 -0 -0 -0 -0 0
0 0 0 -0 -0 0 0 -0 0 0 -0 -0 -0 -0 -0 -0 -0 -0 -0 -0 -0 -0 0 -0 -0 -1 -0 -1 -1 -1 -1 -1 -0 -0 -0 -0 -0 -0 -0 -0 -0 -0 -0 -0 -0 -0 -0 0 0
0 -0 -0 -0 0 -0 -0 0 0 0 -0 -0 -0 -0 -0 -0 -0 -0 -0 -0 -0 -0 -0 -0 -0 -0 -1 -1 -1 -1 -0 -0 -0 -0 -0 -0 -0 -0 -0 -0 -0 -0 -0 -0 -0 -0 0 0 -0
0 0 -0 0 0 -0 0 0 0 0 -0 -0 -0 0 0 -0 0 -0 -0 -0 -0 -0 -0 -0 -0 -0 -0 -1 -1 -0 -0 -0 -0 -0 -0 -0 -0 -0 -0 -0 -0 -0 0 0 0 0 0 0 0
0 0 0 -0 0 0 0 0 0 0 0 -0 -0 0 0 -0 -0 -0 -0 -0 -0 -0 -0 -0 -0 -0 -0 -0 -0 -0 -0 -0 -0 -0 -0 -0 -0 -0 0 -0 -0 -0 0 0 0 0 0 0 0
-0 0 -0 0 0 -0 0 0 0 0 0 0 0 0 -0 -0 -0 -0 -0 -0 -0 -0 -0 -0 -0 -0 -0 -0 -0 -0 -0 -0 -0 -0 -0 -0 0 0 -0 -0 0 0 -0 0 0 0 0 0 0
-0 0 0 0 0 0 0 0 0 0 0 0 0 -0 -0 -0 -0 -0 -0 -0 -0 -0 -0 -0 -0 -0 -0 -0 0 0 -0 0 0 0 -0 -0 0 0 0 0 0 0 -0 0 0 0 0 0 -0
-0 0 0 0 -0 0 0 0 0 0 0 0 0 -0 -0 -0 -0 -0 -0 -0 -0 -0 -0 -0 -0 -0 -0 -0 0 0 0 0 0 0 -0 0 0 0 0 -0 -0 -0 -0 0 0 0 0 0 -0
0 0 0 0 0 0 0 0 0 0 0 0 -0 -0 -0 -0 -0 -0 -0 -0 -0 -0 -0 -0 -0 -0 -0 0 0 0 -0 0 0 -0 -0 0 0 0 0 -0 -0 -0 -0 -0 -0 -0 0 0 0
0 -0 0 0 0 0 0 0 0 0 -0 0 -0 -0 -0 -0 -0 -0 -0 -0 -0 -0 -0 -0 -0 -0 -0 -0 -0 0 0 0 -0 -0 0 -0 0 0 0 0 -0 -0 -0 -0 -0 -0 0 0 0
0 0 0 0 0 0 0 0 0 0 0 0 -0 0 -0 -0 0 0 0 0 -0 -0 -0 -0 -0 -0 -0 -0 -0 -0 -0 0 -0 -0 -0 0 0 0 0 -0 -0 -0 -0 -0 -0 -0 0 0 0
-0 0 0 -0 -0 0 0 0 0 -0 0 -0 0 0 0 0 0 0 0 0 -0 -0 -0 -0 -0 -0 -0 -0 -0 -0 -0 0 -0 -0 0 -0 0 0 0 0 -0 -0 -0 -0 -0 -0 -0 -0 0
-0 -0 0 -0 0 0 0 0 0 -0 -0 -0 0 0 0 0 0 0 0 0 0 0 -0 -0 -0 -0 -0 -0 -0 0 0 0 0 0 0 0 -0 0 0 -0 -0 0 -0 -0 -0 -0 -0 0 -0
-0 -0 0 0 0 0 0 0 -0 -1 -0 -0 -0 -0 0 -0 0 0 0 0 0 0 0 -0 -0 -0 -0 0 -0 0 0 0 0 0 -0 0 -0 0 0 -0 -0 -0 -0 -0 -0 -0 -0 -0 -0
0 0 0 -0 0 0 0 0 0 -1 -1 -1 -0 -0 0 0 0 0 0 0 0 0 1 0 -0 -0 -0 0 0 0 0 0 0 0 0 0 0 0 0 0 -0 -0 -0 -0 -0 -0 -0 -0 -0
-0 0 0 0 0 0 0 0 -0 -0 -0 -0 -0 -0 -0 -0 -0 0 0 0 0 0 0 1 1 0 0 1 0 0 0 0 0 0 0 -0 0 0 0 0 0 -0 -0 -0 -0 -0 -0 -0 -0
0 0 0 0 0 0 0 -0 -0 0 0 0 -0 -0 -0 -0 -0 0 0 0 0 0 0 0 0 1 1 1 0 0 0 0 0 0 0 -0 0 -0 -0 0 0 0 -0 0 -0 0 0 0 0
0 0 0 0 0 0 0 -0 -0 0 0 0 0 0 0 0 0 0 0 0 0 0 0 0 0 0 1 1 1 1 0 0 0 0 0 0 -0 -0 -0 -0 0 0 -0 -0 0 -0 0 0 0
0 0 0 0 0 -0 0 -0 -0 0 0 0 0 0 -1 0 0 0 0 0 0 0 0 0 0 0 0 0 1 1 1 0 0 0 0 0 -0 -0 -0 -0 -0 0 0 -0 -0 0 0 0 0
-0 -0 -0 -0 0 0 0 0 0 0 0 0 0 0 -0 -0 -1 -0 0 0 0 0 1 1 0 0 0 0 0 0 1 0 0 0 0 0 0 0 -0 -0 -0 0 0 0 -0 -0 -0 0 0
0 0 -0 -0 0 0 0 0 0 0 0 0 0 -0 -0 -0 0 0 0 -0 0 0 2 1 0 0 0 0 0 0 0 0 0 0 0 0 0 0 0 -0 -0 -0 0 0 0 0 0 -0 0
-0 0 0 -0 -0 0 0 0 0 0 0 0 0 -0 -0 -0 0 -0 -0 0 -0 -0 0 1 0 -0 -0 0 0 0 0 0 0 0 0 0 0 0 0 0 -0 0 0 0 0 0 0 -0 0
-0 0 0 0 0 0 0 0 0 0 0 0 0 0 0 0 -0 -0 -0 -0 -0 0 -0 -0 -0 -0 0 0 0 0 0 0 0 0 0 0 0 0 0 0 0 0 0 0 0 0 0 0 -0
-0 0 0 0 0 0 0 0 0 0 0 -0 0 0 -0 -0 -0 0 0 0 0 0 0 0 1 1 1 0 0 0 0 0 0 1 1 0 0 0 0 0 0 0 0 0 0 0 0 0 0
0 0 0 0 0 0 0 0 -0 0 0 0 0 0 -0 0 0 0 0 1 1 1 0 1 1 0 -0 -0 0 -0 1 1 1 1 1 1 0 0 0 0 0 0 0 -0 0 0 0 0 0
-0 0 0 0 0 0 0 -0 0 0 0 0 0 0 0 -0 1 1 1 1 1 1 2 1 1 1 0 0 0 0 1 1 1 1 1 1 1 0 0 0 0 0 0 0 0 0 0 -0 0
0 0 0 0 0 0 0 0 -0 -0 0 0 -0 0 -0 0 1 1 0 1 1 1 1 1 1 1 1 1 0 0 1 1 1 1 1 1 1 0 0 0 0 0 0 0 0 0 0 0 0
Wind_Speed_500mb
11 17 10 13 9 8 7 11 4 5 10 30 28 22 22 28 6 6 54 41 58 56 54 53 55 54 55 58 59 56 54 53 55 54 51 47 43 42 41 37 33 30 31 31 34 34 33 33 32
15 18 18 9 9 7 6 16 15 21 33 43 33 28 29 10 17 53 48 53 55 58 54 53 51 52 53 55 54 52 52 53 52 50 47 46 44 42 41 39 36 35 34 33 31 32 33 32 31
21 12 11 7 7 4 6 5 7 19 34 21 11 26 12 16 47 55 54 61 56 56 53 53 51 51 50 52 49 46 45 45 45 43 41 40 39 37 35 33 32 31 31 31 30 29 27 26 27
8 13 17 8 6 9 13 31 18 21 36 30 34 17 22 14 41 43 58 59 56 54 52 52 51 50 48 46 46 46 45 44 40 36 35 32 33 29 30 27 27 27 27 23 22 22 21 21 22
13 10 8 3 8 16 20 30 30 13 23 27 24 16 21 24 38 48 58 56 54 52 52 51 51 50 47 47 46 44 43 41 37 29 25 26 28 24 20 18 20 21 23 22 19 17 15 15 17
13 9 6 6 11 7 10 24 36 24 40 44 36 27 12 44 50 52 51 53 47 49 50 50 50 48 47 46 46 42 39 36 32 28 22 16 15 15 12 7 11 16 18 19 17 14 11 9 10
8 3 6 10 3 6 3 21 18 31 34 23 36 12 38 55 53 51 45 44 38 37 46 49 49 47 46 44 42 39 36 32 28 24 22 20 11 12 10 14 15 12 15 14 12 10 7 4 2
26 5 4 3 3 4 12 9 11 28 13 45 42 15 38 63 62 54 45 42 35 31 38 44 47 48 46 45 40 34 32 31 28 26 25 23 25 31 37 33 31 22 17 14 10 6 3 1 4
42 5 7 7 13 8 7 10 10 17 39 20 23 47 70 75 65 59 55 43 35 32 39 37 41 44 43 40 36 31 27 26 24 25 27 30 30 31 32 32 32 35 22 17 11 6 3 3 9
17 10 15 12 10 11 10 22 14 8 28 22 40 52 77 75 71 63 54 48 44 44 43 41 40 38 41 38 35 33 29 21 20 31 31 29 30 33 37 42 41 46 27 21 13 9 3 4 11
13 12 10 28 38 29 23 15 19 16 2 48 57 76 77 75 71 64 54 42 41 38 36 37 38 37 36 36 36 33 28 30 23 14 32 19 23 27 27 28 44 51 35 21 15 14 10 9 8
13 27 17 35 38 23 15 30 14 20 14 47 70 72 77 73 69 62 55 48 45 42 37 39 33 34 33 30 25 29 28 33 33 22 19 30 19 18 17 15 42 46 46 25 21 14 14 6 6
12 13 30 26 53 43 43 26 17 29 44 57 71 62 70 73 67 63 48 45 48 45 43 41 38 37 33 32 22 22 25 31 27 24 19 17 29 13 13 15 30 45 43 40 26 22 16 16 13
17 24 28 24 24 46 29 14 19 31 63 71 70 65 63 64 65 62 60 52 59 48 47 42 43 38 33 35 29 30 20 22 22 31 27 15 13 24 16 13 19 29 42 44 34 25 22 21 16
4 12 10 14 13 15 46 4 14 62 69 67 69 67 58 59 63 62 60 56 54 51 51 43 46 43 37 35 32 31 30 31 22 24 35 27 16 18 23 17 13 17 27 42 43 31 25 24 24
4 6 7 8 17 30 17 14 16 70 68 62 64 70 64 57 62 57 61 57 61 52 56 48 47 44 37 39 37 31 32 32 29 29 31 25 20 13 27 21 17 14 22 38 43 33 33 33 27
7 6 9 5 20 12 7 10 20 68 65 60 62 64 67 60 58 55 55 60 60 57 49 49 51 44 26 40 39 24 29 28 22 24 33 26 21 22 19 22 21 19 22 36 42 39 33 35 31
9 7 7 14 11 11 12 13 13 64 62 63 63 64 68 66 69 60 60 55 59 52 45 53 53 46 32 41 35 22 27 25 28 20 23 29 22 26 27 19 30 28 27 26 28 38 39 36 32
18 4 8 13 14 8 15 7 4 47 50 51 57 61 70 70 68 62 58 48 55 56 41 57 59 49 43 45 40 37 30 28 29 30 23 28 34 23 30 28 22 32 30 27 27 32 38 42 37
13 11 11 8 10 7 6 10 7 14 8 53 61 63 72 68 73 67 58 46 53 55 50 47 61 50 45 46 45 36 27 27 24 26 28 28 33 30 32 31 27 33 31 32 35 39 40 41 36
10 4 2 2 8 7 12 10 11 4 11 26 48 66 56 30 42 59 68 60 57 57 57 44 53 52 46 43 41 41 34 34 30 36 34 27 31 33 31 31 33 31 35 40 39 42 43 40 38
4 6 4 2 8 5 7 8 8 10 13 22 28 52 42 43 42 42 54 57 56 61 62 50 45 49 42 39 44 45 44 34 32 25 22 26 26 29 32 30 36 37 33 35 43 38 38 36 35
15 7 1 3 1 7 8 10 14 5 7 17 25 57 64 66 65 58 53 49 51 47 63 54 44 47 39 34 38 38 47 41 32 28 26 26 27 26 34 37 37 37 40 36 34 43 37 34 35
5 6 17 10 7 5 8 11 10 10 13 19 22 35 59 67 62 36 66 48 27 33 53 66 59 46 42 36 36 38 41 44 38 34 32 26 26 26 28 34 40 43 43 42 39 38 44 40 41
18 14 8 10 10 7 13 10 12 15 14 10 26 37 44 52 47 48 52 44 45 36 47 65 73 63 50 41 35 32 38 41 39 36 36 33 29 29 27 24 29 35 40 42 43 45 47 50 51
7 15 11 6 4 6 15 12 11 6 38 35 26 20 4 27 40 33 38 49 50 37 60 44 63 78 52 40 29 29 35 37 41 38 41 35 33 26 21 32 35 29 36 39 43 50 50 50 51
7 4 16 8 5 11 6 10 12 17 22 35 25 22 13 37 41 23 22 9 22 49 56 56 84 57 21 23 29 32 36 40 40 39 43 44 41 36 36 38 34 36 38 48 42 39 43 47 48
12 9 5 7 6 4 8 9 10 7 10 19 35 31 19 32 43 30 26 17 22 37 43 53 48 29 38 42 32 37 37 32 36 36 42 44 43 41 47 33 24 54 53 34 35 36 41 45 46
10 9 10 9 9 11 8 12 14 19 19 21 34 63 66 40 52 28 16 12 11 24 25 44 35 18 22 16 24 35 35 34 37 34 35 43 40 40 42 40 38 8 34 37 33 38 29 46 47
10 11 13 9 12 2 6 9 9 20 26 33 59 51 43 31 33 35 27 17 12 12 18 10 9 3 3 17 25 26 27 33 42 43 39 35 34 30 36 41 37 36 38 32 36 44 36 45 51
Wind_Direction_500mb
74 88 70 49 64 60 316 340 356 87 58 64 114 100 104 46 7 128 142 150 152 144 143 145 144 142 138 138 138 137 138 139 137 135 134 131 131 128 125 122 121 118 119 120 125 124 126 124 122
111 112 85 90 75 48 34 299 72 101 111 102 81 77 48 73 87 134 141 153 151 146 146 148 147 143 141 141 142 142 139 138 139 137 133 131 128 127 126 122 115 113 113 117 124 130 132 131 131
107 71 64 61 65 54 288 277 65 112 127 113 103 68 74 107 124 139 148 154 153 150 149 149 149 146 144 147 144 138 137 137 139 139 135 132 131 132 133 130 125 118 118 121 127 134 135 134 134
38 29 56 72 165 175 99 291 287 107 89 87 110 69 86 94 142 150 148 155 155 152 152 151 152 151 150 149 147 143 145 143 140 141 139 136 131 134 133 139 136 132 125 120 123 128 135 138 141
11 71 60 356 207 143 164 202 220 112 85 91 118 105 103 155 139 141 152 157 156 152 154 153 157 155 154 154 154 153 148 144 143 147 150 147 136 128 123 145 145 144 136 130 128 129 138 142 153
319 33 38 320 34 101 141 112 116 112 111 104 100 106 95 147 134 136 150 154 155 154 156 157 160 160 159 162 162 162 159 156 152 154 156 169 175 174 143 178 176 165 155 144 138 144 152 155 167
139 343 337 319 83 42 117 99 123 133 135 134 130 97 141 150 139 147 144 144 144 156 160 161 164 165 166 170 172 174 172 174 174 170 174 180 185 214 210 275 251 215 181 168 151 149 132 121 152
189 161 207 193 130 142 195 153 120 152 158 137 128 146 166 159 157 158 154 152 159 166 171 166 168 171 172 179 183 187 191 192 200 199 197 207 215 248 258 274 250 236 211 194 180 166 143 52 348
204 184 226 224 153 219 177 123 112 131 141 161 205 162 159 162 161 156 158 162 166 173 176 176 175 176 179 180 188 196 202 207 219 225 230 231 237 241 239 256 242 225 225 211 200 190 200 325 340
149 149 213 165 151 190 104 87 92 66 147 106 114 149 153 164 166 168 174 165 166 166 177 185 185 184 182 187 193 197 200 206 232 236 238 239 242 248 248 253 233 216 222 214 209 209 210 344 337
162 160 191 152 180 150 112 114 135 106 110 144 139 152 162 171 174 174 183 174 171 172 172 178 186 194 197 199 205 204 216 208 225 238 229 228 235 242 253 250 204 210 215 214 213 219 239 292 294
100 157 138 151 167 147 155 153 141 173 200 159 154 165 169 170 176 182 185 190 185 183 180 171 170 172 182 191 203 211 238 213 221 233 230 235 232 230 245 234 206 213 222 225 217 225 237 259 316
126 176 156 176 172 157 151 167 152 129 161 157 156 164 176 182 186 193 194 192 190 191 193 181 182 181 184 183 199 223 224 224 220 219 222 227 236 211 220 232 222 226 230 227 225 236 247 254 293
180 171 173 202 196 158 153 185 150 153 160 159 164 169 176 189 195 197 195 196 195 199 201 194 195 199 208 204 208 224 255 218 227 234 233 245 242 222 224 223 230 231 232 227 226 233 246 257 266
235 128 215 227 205 134 137 189 187 160 164 165 172 175 177 192 199 205 206 200 195 201 204 204 204 207 212 221 221 239 248 232 250 241 225 231 244 240 226 224 236 238 231 221 222 231 236 246 262
166 62 131 249 178 163 144 232 176 166 166 175 177 181 185 193 202 211 207 200 195 196 202 206 208 208 218 218 226 240 239 243 249 241 218 219 234 234 224 221 242 236 226 214 220 236 238 243 257
344 230 185 205 196 167 122 227 166 174 175 176 180 186 192 192 200 208 203 207 201 203 209 208 210 217 232 217 228 242 243 243 246 248 220 219 224 228 236 224 221 224 215 219 231 236 242 240 249
259 229 241 172 227 176 188 219 165 180 183 179 183 189 195 198 198 197 204 212 204 215 223 215 216 218 227 224 230 246 242 246 251 253 243 228 229 235 232 286 224 213 215 219 222 222 227 232 240
221 205 294 194 213 126 222 271 342 186 192 178 186 190 197 199 202 197 199 210 212 213 221 219 218 214 219 223 218 237 253 243 251 250 257 242 228 244 246 248 252 226 221 222 223 222 225 232 244
21 18 8 23 165 151 192 281 352 32 118 185 183 189 199 199 201 199 190 210 213 213 220 222 219 220 222 228 234 247 252 247 258 260 259 254 250 247 247 250 256 238 237 235 234 231 235 237 241
356 122 0 213 353 10 96 350 355 355 73 110 188 192 198 191 192 197 189 204 212 219 221 226 223 222 228 233 237 240 239 247 242 240 239 246 248 246 248 246 242 238 240 240 245 245 241 250 251
24 279 132 86 66 228 65 258 319 311 342 83 139 176 159 158 165 195 207 203 212 222 222 226 228 226 232 238 237 244 242 248 250 252 251 242 245 245 245 239 237 236 240 248 242 244 246 259 244
218 238 137 277 359 35 341 81 265 69 14 89 100 138 159 166 185 211 202 217 210 220 220 223 232 232 238 240 246 245 241 254 253 252 246 238 236 246 247 243 240 241 246 249 247 246 252 246 249
345 10 24 42 94 40 234 118 285 26 319 61 85 136 168 186 209 221 201 210 209 226 223 221 225 233 237 238 243 239 242 245 236 232 236 238 236 236 244 245 244 247 248 250 253 252 246 246 249
68 56 352 347 10 230 299 76 224 35 70 70 39 8 183 199 221 213 208 249 239 253 212 222 223 225 230 229 229 233 236 229 235 240 245 241 243 242 239 249 248 248 248 245 250 251 250 247 250
200 148 149 253 217 226 11 346 301 100 64 54 54 10 189 224 191 189 229 255 260 227 213 241 249 228 220 218 225 241 240 237 241 243 248 250 254 251 237 237 245 264 256 245 242 246 250 251 254
271 207 188 148 72 86 270 278 310 19 38 29 71 82 203 210 150 135 104 95 217 215 242 224 232 233 196 254 252 257 252 247 250 244 251 252 257 252 252 248 258 252 281 265 247 254 262 259 259
159 186 29 18 179 100 280 285 231 112 133 61 8 18 288 224 129 119 118 111 176 228 246 236 247 246 206 256 241 255 259 256 263 257 253 253 254 250 252 267 260 329 287 250 257 268 272 270 268
349 20 24 108 109 154 179 254 214 186 166 133 140 209 234 210 131 132 115 93 104 119 209 231 242 230 260 290 261 253 266 268 266 267 269 260 260 261 258 248 243 270 282 246 252 251 270 261 260
145 108 112 107 301 177 161 279 254 213 176 182 198 211 218 158 142 135 129 131 163 151 127 136 241 138 123 256 276 287 277 277 266 272 273 272 263 261 272 261 256 271 252 253 266 251 260 268 264
Wind_Speed_850mb
11 17 10 13 9 8 7 11 4 5 10 30 28 22 22 28 6 6 54 41 58 56 54 53 55 54 55 58 59 56 54 53 55 54 51 47 43 42 41 37 33 30 31 31 34 34 33 33 32
15 18 18 9 9 7 6 16 15 21 33 43 33 28 29 10 17 53 48 53 55 58 54 53 51 52 53 55 54 52 52 53 52 50 47 46 44 42 41 39 36 35 34 33 31 32 33 32 31
21 12 11 7 7 4 6 5 7 19 34 21 11 26 12 16 47 55 54 61 56 56 53 53 51 51 50 52 49 46 45 45 45 43 41 40 39 37 35 33 32 31 31 31 30 29 27 26 27
8 13 17 8 6 9 13 31 18 21 36 30 34 17 22 14 41 43 58 59 56 54 52 52 51 50 48 46 46 46 45 44 40 36 35 32 33 29 30 27 27 27 27 23 22 22 21 21 22
13 10 8 3 8 16 20 30 30 13 23 27 24 16 21 24 38 48 58 56 54 52 52 51 51 50 47 47 46 44 43 41 37 29 25 26 28 24 20 18 20 21 23 22 19 17 15 15 17
13 9 6 6 11 7 10 24 36 24 40 44 36 27 12 44 50 52 51 53 47 49 50 50 50 48 47 46 46 42 39 36 32 28 22 16 15 15 12 7 11 16 18 19 17 14 11 9 10
8 3 6 10 3 6 3 21 18 31 34 23 36 12 38 55 53 51 45 44 38 37 46 49 49 47 46 44 42 39 36 32 28 24 22 20 11 12 10 14 15 12 15 14 12 10 7 4 2
26 5 4 3 3 4 12 9 11 28 13 45 42 15 38 63 62 54 45 42 35 31 38 44 47 48 46 45 40 34 32 31 28 26 25 23 25 31 37 33 31 22 17 14 10 6 3 1 4
42 5 7 7 13 8 7 10 10 17 39 20 23 47 70 75 65 59 55 43 35 32 39 37 41 44 43 40 36 31 27 26 24 25 27 30 30 31 32 32 32 35 22 17 11 6 3 3 9
17 10 15 12 10 11 10 22 14 8 28 22 40 52 77 75 71 63 54 48 44 44 43 41 40 38 41 38 35 33 29 21 20 31 31 29 30 33 37 42 41 46 27 21 13 9 3 4 11
13 12 10 28 38 29 23 15 19 16 2 48 57 76 77 75 71 64 54 42 41 38 36 37 38 37 36 36 36 33 28 30 23 14 32 19 23 27 27 28 44 51 35 21 15 14 10 9 8
13 27 17 35 38 23 15 30 14 20 14 47 70 72 77 73 69 62 55 48 45 42 37 39 33 34 33 30 25 29 28 33 33 22 19 30 19 18 17 15 42 46 46 25 21 14 14 6 6
12 13 30 26 53 43 43 26 17 29 44 57 71 62 70 73 67 63 48 45 48 45 43 41 38 37 33 32 22 22 25 31 27 24 19 17 29 13 13 15 30 45 43 40 26 22 16 16 13
17 24 28 24 24 46 29 14 19 31 63 71 70 65 63 64 65 62 60 52 59 48 47 42 43 38 33 35 29 30 20 22 22 31 27 15 13 24 16 13 19 29 42 44 34 25 22 21 16
4 12 10 14 13 15 46 4 14 62 69 67 69 67 58 59 63 62 60 56 54 51 51 43 46 43 37 35 32 31 30 31 22 24 35 27 16 18 23 17 13 17 27 42 43 31 25 24 24
4 6 7 8 17 30 17 14 16 70 68 62 64 70 64 57 62 57 61 57 61 52 56 48 47 44 37 39 37 31 32 32 29 29 31 25 20 13 27 21 17 14 22 38 43 33 33 33 27
7 6 9 5 20 12 7 10 20 68 65 60 62 64 67 60 58 55 55 60 60 57 49 49 51 44 26 40 39 24 29 28 22 24 33 26 21 22 19 22 21 19 22 36 42 39 33 35 31
9 7 7 14 11 11 12 13 13 64 62 63 63 64 68 66 69 60 60 55 59 52 45 53 53 46 32 41 35 22 27 25 28 20 23 29 22 26 27 19 30 28 27 26 28 38 39 36 32
18 4 8 13 14 8 15 7 4 47 50 51 57 61 70 70 68 62 58 48 55 56 41 57 59 49 43 45 40 37 30 28 29 30 23 28 34 23 30 28 22 32 30 27 27 32 38 42 37
13 11 11 8 10 7 6 10 7 14 8 53 61 63 72 68 73 67 58 46 53 55 50 47 61 50 45 46 45 36 27 27 24 26 28 28 33 30 32 31 27 33 31 32 35 39 40 41 36
10 4 2 2 8 7 12 10 11 4 11 26 48 66 56 30 42 59 68 60 57 57 57 44 53 52 46 43 41 41 34 34 30 36 34 27 31 33 31 31 33 31 35 40 39 42 43 40 38
4 6 4 2 8 5 7 8 8 10 13 22 28 52 42 43 42 42 54 57 56 61 62 50 45 49 42 39 44 45 44 34 32 25 22 26 26 29 32 30 36 37 33 35 43 38 38 36 35
15 7 1 3 1 7 8 10 14 5 7 17 25 57 64 66 65 58 53 49 51 47 63 54 44 47 39 34 38 38 47 41 32 28 26 26 27 26 34 37 37 37 40 36 34 43 37 34 35
5 6 17 10 7 5 8 11 10 10 13 19 22 35 59 67 62 36 66 48 27 33 53 66 59 46 42 36 36 38 41 44 38 34 32 26 26 26 28 34 40 43 43 42 39 38 44 40 41
18 14 8 10 10 7 13 10 12 15 14 10 26 37 44 52 47 48 52 44 45 36 47 65 73 63 50 41 35 32 38 41 39 36 36 33 29 29 27 24 29 35 40 42 43 45 47 50 51
7 15 11 6 4 6 15 12 11 6 38 35 26 20 4 27 40 33 38 49 50 37 60 44 63 78 52 40 29 29 35 37 41 38 41 35 33 26 21 32 35 29 36 39 43 50 50 50 51
7 4 16 8 5 11 6 10 12 17 22 35 25 22 13 37 41 23 22 9 22 49 56 56 84 57 21 23 29 32 36 40 40 39 43 44 41 36 36 38 34 36 38 48 42 39 43 47 48
12 9 5 7 6 4 8 9 10 7 10 19 35 31 19 32 43 30 26 17 22 37 43 53 48 29 38 42 32 37 37 32 36 36 42 44 43 41 47 33 24 54 53 34 35 36 41 45 46
10 9 10 9 9 11 8 12 14 19 19 21 34 63 66 40 52 28 16 12 11 24 25 44 35 18 22 16 24 35 35 34 37 34 35 43 40 40 42 40 38 8 34 37 33 38 29 46 47
10 11 13 9 12 2 6 9 9 20 26 33 59 51 43 31 33 35 27 17 12 12 18 10 9 3 3 17 25 26 27 33 42 43 39 35 34 30 36 41 37 36 38 32 36 44 36 45 51
Wind_Direction_850mb
74 88 70 49 64 60 316 340 356 87 58 64 114 100 104 46 7 128 142 150 152 144 143 145 144 142 138 138 138 137 138 139 137 135 134 131 131 128 125 122 121 118 119 120 125 124 126 124 122
111 112 85 90 75 48 34 299 72 101 111 102 81 77 48 73 87 134 141 153 151 146 146 148 147 143 141 141 142 142 139 138 139 137 133 131 128 127 126 122 115 113 113 117 124 130 132 131 131
107 71 64 61 65 54 288 277 65 112 127 113 103 68 74 107 124 139 148 154 153 150 149 149 149 146 144 147 144 138 137 137 139 139 135 132 131 132 133 130 125 118 118 121 127 134 135 134 134
38 29 56 72 165 175 99 291 287 107 89 87 110 69 86 94 142 150 148 155 155 152 152 151 152 151 150 149 147 143 145 143 140 141 139 136 131 134 133 139 136 132 125 120 123 128 135 138 141
11 71 60 356 207 143 164 202 220 112 85 91 118 105 103 155 139 141 152 157 156 152 154 153 157 155 154 154 154 153 148 144 143 147 150 147 136 128 123 145 145 144 136 130 128 129 138 142 153
319 33 38 320 34 101 141 112 116 112 111 104 100 106 95 147 134 136 150 154 155 154 156 157 160 160 159 162 162 162 159 156 152 154 156 169 175 174 143 178 176 165 155 144 138 144 152 155 167
139 343 337 319 83 42 117 99 123 133 135 134 130 97 141 150 139 147 144 144 144 156 160 161 164 165 166 170 172 174 172 174 174 170 174 180 185 214 210 275 251 215 181 168 151 149 132 121 152
189 161 207 193 130 142 195 153 120 152 158 137 128 146 166 159 157 158 154 152 159 166 171 166 168 171 172 179 183 187 191 192 200 199 197 207 215 248 258 274 250 236 211 194 180 166 143 52 348
204 184 226 224 153 219 177 123 112 131 141 161 205 162 159 162 161 156 158 162 166 173 176 176 175 176 179 180 188 196 202 207 219 225 230 231 237 241 239 256 242 225 225 211 200 190 200 325 340
149 149 213 165 151 190 104 87 92 66 147 106 114 149 153 164 166 168 174 165 166 166 177 185 185 184 182 187 193 197 200 206 232 236 238 239 242 248 248 253 233 216 222 214 209 209 210 344 337
162 160 191 152 180 150 112 114 135 106 110 144 139 152 162 171 174 174 183 174 171 172 172 178 186 194 197 199 205 204 216 208 225 238 229 228 235 242 253 250 204 210 215 214 213 219 239 292 294
100 157 138 151 167 147 155 153 141 173 200 159 154 165 169 170 176 182 185 190 185 183 180 171 170 172 182 191 203 211 238 213 221 233 230 235 232 230 245 234 206 213 222 225 217 225 237 259 316
126 176 156 176 172 157 151 167 152 129 161 157 156 164 176 182 186 193 194 192 190 191 193 181 182 181 184 183 199 223 224 224 220 219 222 227 236 211 220 232 222 226 230 227 225 236 247 254 293
180 171 173 202 196 158 153 185 150 153 160 159 164 169 176 189 195 197 195 196 195 199 201 194 195 199 208 204 208 224 255 218 227 234 233 245 242 222 224 223 230 231 232 227 226 233 246 257 266
235 128 215 227 205 134 137 189 187 160 164 165 172 175 177 192 199 205 206 200 195 201 204 204 204 207 212 221 221 239 248 232 250 241 225 231 244 240 226 224 236 238 231 221 222 231 236 246 262
166 62 131 249 178 163 144 232 176 166 166 175 177 181 185 193 202 211 207 200 195 196 202 206 208 208 218 218 226 240 239 243 249 241 218 219 234 234 224 221 242 236 226 214 220 236 238 243 257
344 230 185 205 196 167 122 227 166 174 175 176 180 186 192 192 200 208 203 207 201 203 209 208 210 217 232 217 228 242 243 243 246 248 220 219 224 228 236 224 221 224 215 219 231 236 242 240 249
259 229 241 172 227 176 188 219 165 180 183 179 183 189 195 198 198 197 204 212 204 215 223 215 216 218 227 224 230 246 242 246 251 253 243 228 229 235 232 286 224 213 215 219 222 222 227 232 240
221 205 294 194 213 126 222 271 342 186 192 178 186 190 197 199 202 197 199 210 212 213 221 219 218 214 219 223 218 237 253 243 251 250 257 242 228 244 246 248 252 226 221 222 223 222 225 232 244
21 18 8 23 165 151 192 281 352 32 118 185 183 189 199 199 201 199 190 210 213 213 220 222 219 220 222 228 234 247 252 247 258 260 259 254 250 247 247 250 256 238 237 235 234 231 235 237 241
356 122 0 213 353 10 96 350 355 355 73 110 188 192 198 191 192 197 189 204 212 219 221 226 223 222 228 233 237 240 239 247 242 240 239 246 248 246 248 246 242 238 240 240 245 245 241 250 251
24 279 132 86 66 228 65 258 319 311 342 83 139 176 159 158 165 195 207 203 212 222 222 226 228 226 232 238 237 244 242 248 250 252 251 242 245 245 245 239 237 236 240 248 242 244 246 259 244
218 238 137 277 359 35 341 81 265 69 14 89 100 138 159 166 185 211 202 217 210 220 220 223 232 232 238 240 246 245 241 254 253 252 246 238 236 246 247 243 240 241 246 249 247 246 252 246 249
345 10 24 42 94 40 234 118 285 26 319 61 85 136 168 186 209 221 201 210 209 226 223 221 225 233 237 238 243 239 242 245 236 232 236 238 236 236 244 245 244 247 248 250 253 252 246 246 249
68 56 352 347 10 230 299 76 224 35 70 70 39 8 183 199 221 213 208 249 239 253 212 222 223 225 230 229 229 233 236 229 235 240 245 241 243 242 239 249 248 248 248 245 250 251 250 247 250
200 148 149 253 217 226 11 346 301 100 64 54 54 10 189 224 191 189 229 255 260 227 213 241 249 228 220 218 225 241 240 237 241 243 248 250 254 251 237 237 245 264 256 245 242 246 250 251 254
271 207 188 148 72 86 270 278 310 19 38 29 71 82 203 210 150 135 104 95 217 215 242 224 232 233 196 254 252 257 252 247 250 244 251 252 257 252 252 248 258 252 281 265 247 254 262 259 259
159 186 29 18 179 100 280 285 231 112 133 61 8 18 288 224 129 119 118 111 176 228 246 236 247 246 206 256 241 255 259 256 263 257 253 253 254 250 252 267 260 329 287 250 257 268 272 270 268
349 20 24 108 109 154 179 254 214 186 166 133 140 209 234 210 131 132 115 93 104 119 209 231 242 230 260 290 261 253 266 268 266 267 269 260 260 261 258 248 243 270 282 246 252 251 270 261 260
145 108 112 107 301 177 161 279 254 213 176 182 198 211 218 158 142 135 129 131 163 151 127 136 241 138 123 256 276 287 277 277 266 272 273 272 263 261 272 261 256 271 252 253 266 251 260 268 264